This demonstration page uses our WeatherBlox Daily Observations layout. Learn more.

Left ArrowRight Arrow

34.74481, -87.66753

Hourly Observations for February 1, 2020

Temp ( °F °C ) Dew Point ( °F °C ) Humidity (%) Winds ( mph kmh ) Pressure ( in mb ) Visibility ( mi km ) Precip ( " mm )
12:53 am 00:53 Cloudy 49 9.4 44 6.7 83 83 Calm 30.05 1018 10 16 0.00 0.00
1:44 am 01:44 Cloudy with Light Rain 49 9.4 45 7.2 86 86 Calm 30.07 1018 9 14 0.00 0.00
1:53 am 01:53 Cloudy with Light Rain 49 9.4 45 7.2 86 86 SW 3 6 30.05 1018 6 10 0.00 0.00
2:15 am 02:15 Cloudy with Light Rain 49 9.4 46 7.8 90 90 WSW 6 9 30.07 1018 5 8 0.00 0.00
2:43 am 02:43 Cloudy with Light Rain 48 8.9 46 7.8 93 93 W 3 6 30.06 1018 5 8 0.00 0.00
2:53 am 02:53 Cloudy with Mist and Fog 48 8.9 46 7.8 93 93 W 3 6 30.05 1018 6 10 0.00 0.00
3:00 am 03:00 Cloudy with Mist and Fog 48 8.9 46 7.8 93 93 WNW 3 6 30.06 1018 6 10 0.00 0.00
3:07 am 03:07 Cloudy with Mist and Fog 48 8.9 46 7.8 93 93 WNW 5 7 30.06 1018 6 10 0.00 0.00
3:53 am 03:53 Cloudy with Mist and Fog 48 8.9 45 7.2 89 89 WNW 7 11 30.04 1017 3 5 0.00 0.00
4:53 am 04:53 Cloudy with Mist and Fog 48 8.9 45 7.2 89 89 NW 7 11 30.04 1017 3 5 0.00 0.00
5:41 am 05:41 Cloudy 48 8.9 44 6.7 86 86 NW 7 11 30.06 1018 10 16 0.00 0.00
5:53 am 05:53 Cloudy 48 8.9 44 6.7 86 86 NW 8 13 30.05 1018 10 16 0.00 0.00
6:30 am 06:30 Cloudy 47 8.3 44 6.7 90 90 NW 9 15 30.07 1018 10 16 0.00 0.00
6:53 am 06:53 Cloudy 47 8.3 43 6.1 86 86 NW 7 11 30.06 1018 10 16 0.00 0.00
7:24 am 07:24 Cloudy 47 8.3 43 6.1 86 86 WNW 8 13 30.08 1019 10 16 0.00 0.00
7:53 am 07:53 Cloudy 47 8.3 42 5.6 83 83 NW 7 11 30.07 1018 10 16 0.00 0.00
8:19 am 08:19 Mostly Cloudy 47 8.3 42 5.6 83 83 NW 6 9 30.08 1019 10 16 0.00 0.00
8:53 am 08:53 Cloudy 48 8.9 41 5 77 77 NW 12 19 30.08 1019 10 16 0.00 0.00
9:53 am 09:53 Mostly Cloudy 49 9.4 41 5 74 74 WNW 10 17 30.09 1019 10 16 0.00 0.00
10:19 am 10:19 Cloudy 50 10 40 4.4 68 68 WNW 8 13 30.10 1019 10 16 0.00 0.00
10:29 am 10:29 Mostly Cloudy 49 9.4 39 3.9 69 69 NW 10 17 30.11 1020 10 16 0.00 0.00
10:36 am 10:36 Mostly Cloudy 50 10 39 3.9 66 66 WNW 9 15 30.11 1020 10 16 0.00 0.00
10:53 am 10:53 Cloudy 50 10 39 3.9 66 66 WNW 12 19 30.09 1019 10 16 0.00 0.00
11:53 am 11:53 Cloudy 49 9.4 38 3.3 66 66 WNW 13 20 30.06 1018 10 16 0.00 0.00
12:53 pm 12:53 Cloudy 50 10 37 2.8 61 61 WNW 13 20 30.04 1017 10 16 0.00 0.00
1:53 pm 13:53 Cloudy 49 9.4 36 2.2 61 61 WNW 10 17 30.04 1017 10 16 0.00 0.00
2:53 pm 14:53 Cloudy 50 10 36 2.2 59 59 WNW 9 15 30.03 1017 10 16 0.00 0.00
3:53 pm 15:53 Cloudy 50 10 36 2.2 59 59 W 12 19 30.03 1017 10 16 0.00 0.00
4:53 pm 16:53 Cloudy 49 9.4 37 2.8 64 64 W 9 15 30.04 1017 10 16 0.00 0.00
8:53 pm 20:53 Clear 39 3.9 35 1.7 86 86 SW 3 6 30.09 1019 10 16 0.00 0.00
9:53 pm 21:53 Clear 40 4.4 35 1.7 83 83 WSW 3 6 30.09 1019 10 16 0.00 0.00
10:53 pm 22:53 Clear 39 3.9 33 0.6 79 79 SW 5 7 30.09 1019 10 16 0.00 0.00
11:53 pm 23:53 Clear 39 3.9 32 0 76 76 WSW 6 9 30.07 1018 10 16 0.00 0.00

Powered by AerisWeather